M I D A S
Marine Information and Data Acquisition System
Tripno 812 of the Zeeleeuw from 2004-11-24 07:45:28 to 2004-11-24 14:29:23
Back to CruiseResearch ActivitiesStationsMapUnderway DataData graphs

EquipmentUnitsComment
TimeDGPSUTC
LatitudeDGPSDM.mWGS84
LongitudeDGPSDM.mWGS84
TemperatureSBE03/SBE38deg celciusITS90
ConductivitySBE21S/mITS90
SalinitySBE21 Practical Salinity Units
ChlorophylAChelsea fluorimeterg/lCalibrated in Aceton
Missing or incorrect values are displayed as -999
Sea surface data collected by the RV Zeeleeuw from 2004-11-24 07:38:26 to 2004-11-24 14:40:34
Time Latitude Longitude Temperature Conductivity Salinity ChlorophylA
2004-11-24 07:39:33 51°13.63 2°55.999 15.699643 0.070437 0.414781 -0.848668
2004-11-24 07:40:45 51°13.642 2°55.947 15.673351 0.070437 0.414796 -0.882377
2004-11-24 07:41:44 51°13.675 2°55.856 15.70491 0.070437 0.414804 -0.882377
2004-11-24 07:42:44 51°13.699 2°55.758 15.72355 0.070437 0.414796 -0.916087
2004-11-24 07:43:58 51°13.7 2°55.748 15.753223 0.070437 0.414789 -0.882377
2004-11-24 07:45:08 51°13.719 2°55.755 15.923522 0.070437 0.414789 -0.916087
2004-11-24 07:46:08 51°13.779 2°55.682 15.702813 0.070437 0.414781 -0.882377
2004-11-24 07:47:08 51°13.904 2°55.576 15.682676 0.070437 0.414833 -0.882377
2004-11-24 07:48:12 51°14.058 2°55.47 15.745259 0.070437 0.41484 -0.882377
2004-11-24 07:49:15 51°14.217 2°55.332 15.804808 0.070437 0.41484 -0.916087
2004-11-24 07:50:14 51°14.338 2°55.117 15.695495 0.070437 0.414833 -0.882377
2004-11-24 07:51:42 51°14.477 2°54.66 15.768777 0.070437 0.414818 -0.882377
2004-11-24 07:52:50 51°14.645 2°54.354 15.697919 0.070437 0.41484 -0.882377
2004-11-24 07:54:00 51°14.868 2°54.136 15.647282 0.070437 0.414848 -0.882377
2004-11-24 07:55:02 51°15.073 2°53.969 15.64369 0.070437 0.41484 -0.916087
2004-11-24 07:56:17 51°15.327 2°53.759 15.63604 0.070437 0.414855 -0.882377
2004-11-24 07:57:24 51°15.555 2°53.568 15.663699 0.070437 0.414863 -0.882377
2004-11-24 07:58:44 51°15.826 2°53.34 15.667942 0.070437 0.414885 -0.916087
2004-11-24 07:59:56 51°16.068 2°53.134 15.663186 0.070437 0.414899 -0.916087
2004-11-24 08:00:56 51°16.273 2°52.977 15.70258 0.070437 0.414914 -0.882377
2004-11-24 08:02:01 51°16.494 2°52.807 15.697593 0.070437 0.414929 -0.882377
2004-11-24 08:03:01 51°16.696 2°52.652 15.673724 0.070437 0.414951 -0.882377
2004-11-24 08:04:19 51°16.956 2°52.451 15.699317 0.070437 0.414973 -0.882377
2004-11-24 08:05:36 51°17.215 2°52.26 15.726392 0.070437 0.414988 -0.916087
2004-11-24 08:07:04 51°17.527 2°52.12 15.732169 0.070437 0.415025 -0.882377
2004-11-24 08:08:06 51°17.751 2°52.126 15.744048 0.070437 0.415032 -0.916087
2004-11-24 08:09:18 51°18.013 2°52.173 15.757834 0.070437 0.41504 -0.882377
2004-11-24 08:10:26 51°18.257 2°52.257 15.766822 0.070333 0.414435 -0.882377
2004-11-24 08:11:26 51°18.462 2°52.379 15.73748 0.070437 0.415077 -0.882377
2004-11-24 08:13:04 51°18.693 2°52.785 15.795174 0.070437 0.415128 -0.882377
2004-11-24 08:14:11 51°18.775 2°53.153 15.806251 0.070437 0.415136 -0.882377
2004-11-24 08:16:16 51°18.943 2°53.835 15.840587 0.070333 0.41456 -0.916087
2004-11-24 08:17:16 51°19.022 2°54.165 15.844402 0.070333 0.414575 -0.916087
2004-11-24 08:18:16 51°19.099 2°54.499 15.831098 0.070333 0.41459 -0.882377
2004-11-24 08:19:16 51°19.176 2°54.832 15.879696 0.070437 0.415247 -0.882377
2004-11-24 08:20:16 51°19.256 2°55.163 15.864306 0.070333 0.414656 -0.882377
2004-11-24 08:21:44 51°19.377 2°55.646 15.89908 0.070333 0.414686 -0.916087
2004-11-24 08:23:33 51°19.526 2°56.253 15.883834 0.070437 0.415372 -0.882377
2004-11-24 08:25:10 51°19.659 2°56.798 15.868817 0.070333 0.414774 -0.882377
2004-11-24 08:26:16 51°19.75 2°57.168 15.874257 0.070437 0.415417 -0.882377
2004-11-24 08:27:24 51°19.841 2°57.547 15.896756 0.070437 0.415446 -0.916087
2004-11-24 08:28:32 51°19.932 2°57.927 15.907956 0.070437 0.415454 -0.882377
2004-11-24 08:30:10 51°20.065 2°58.473 15.948514 0.070437 0.415469 -0.882377
2004-11-24 08:31:16 51°20.153 2°58.841 15.973914 0.070437 0.415498 -0.882377
2004-11-24 08:32:22 51°20.243 2°59.207 15.996752 0.070437 0.415506 -0.882377
2004-11-24 08:33:49 51°20.36 2°59.7 16.03531 0.070437 0.415528 -0.916087
2004-11-24 08:34:48 51°20.443 3°0.037 16.058083 0.070437 0.415543 -0.882377
2004-11-24 08:35:56 51°20.535 3°0.428 16.072642 0.070437 0.41555 -0.916087
2004-11-24 08:37:05 51°20.631 3°0.823 16.120008 0.070437 0.41558 -0.882377
2004-11-24 08:38:05 51°20.712 3°1.17 16.128301 0.070437 0.41558 -0.916087
2004-11-24 08:39:02 51°20.792 3°1.499 16.176417 0.070437 0.415594 -0.882377
2004-11-24 08:40:28 51°20.913 3°1.998 16.185258 0.070437 0.415602 -0.882377
2004-11-24 08:41:28 51°20.996 3°2.349 16.202244 0.070437 0.415624 -0.882377
2004-11-24 08:42:52 51°21.116 3°2.839 16.239487 0.070437 0.415646 -0.882377
2004-11-24 08:43:52 51°21.202 3°3.191 16.259465 0.070437 0.415654 -0.916087
2004-11-24 08:45:04 51°21.303 3°3.613 16.282812 0.070437 0.415661 -0.882377
2004-11-24 08:46:02 51°21.387 3°3.951 16.307584 0.070437 0.415691 -0.882377
2004-11-24 08:47:06 51°21.477 3°4.324 16.365597 0.070437 0.415713 -0.882377
2004-11-24 08:48:08 51°21.565 3°4.687 16.362042 0.070437 0.415713 -0.916087
2004-11-24 08:49:08 51°21.651 3°5.039 16.38817 0.070437 0.415728 -0.882377
2004-11-24 08:50:20 51°21.736 3°5.472 16.427299 0.070437 0.415743 -0.882377
2004-11-24 08:52:16 51°21.869 3°6.177 16.479774 0.070437 0.415757 -0.882377
2004-11-24 08:53:14 51°21.943 3°6.525 16.502403 0.070437 0.415772 -0.916087
2004-11-24 08:54:16 51°22.062 3°6.871 16.525624 0.070437 0.415757 -0.916087
2004-11-24 08:55:24 51°22.137 3°7.287 16.538337 0.070437 0.415757 -0.882377
2004-11-24 08:56:32 51°22.184 3°7.718 16.569372 0.070437 0.415757 -0.916087
2004-11-24 08:57:32 51°22.228 3°8.099 16.59639 0.070437 0.41578 -0.882377
2004-11-24 08:58:36 51°22.254 3°8.508 16.649982 0.070437 0.415787 -0.882377
2004-11-24 08:59:46 51°22.254 3°8.96 16.663086 0.070437 0.415787 -0.882377
2004-11-24 09:00:59 51°22.263 3°9.432 16.691494 0.070437 0.415809 -0.916087
2004-11-24 09:01:59 51°22.246 3°9.82 16.744232 0.070437 0.415861 -0.882377
2004-11-24 09:02:59 51°22.194 3°10.2 16.750845 0.070437 0.415891 -0.916087
2004-11-24 09:04:22 51°22.144 3°10.743 16.818955 0.070437 0.41595 -0.882377
2004-11-24 09:05:34 51°22.218 3°11.214 16.821983 0.070437 0.41598 -0.882377
2004-11-24 09:06:34 51°22.297 3°11.604 16.856058 0.070437 0.416054 -0.882377
2004-11-24 09:07:48 51°22.389 3°12.089 16.876825 0.070333 0.415582 -0.882377
2004-11-24 09:08:48 51°22.463 3°12.483 16.890758 0.070333 0.41573 -0.882377
2004-11-24 09:10:13 51°22.563 3°13.046 16.942158 0.070333 0.415961 -0.916087
2004-11-24 09:11:28 51°22.647 3°13.545 16.980569 0.070229 0.415532 -0.916087
2004-11-24 09:12:26 51°22.712 3°13.931 17.012234 0.070229 0.415718 -0.848668
2004-11-24 09:13:48 51°22.817 3°14.469 17.026003 0.070125 0.415296 -0.882377
2004-11-24 09:14:56 51°22.926 3°14.901 17.076163 0.070125 0.415519 -0.916087
2004-11-24 09:16:02 51°23.12 3°15.182 17.087406 0.070125 0.415773 -0.882377
2004-11-24 09:17:02 51°23.349 3°15.275 17.112217 0.070021 0.415269 -0.916087
2004-11-24 09:18:02 51°23.583 3°15.356 17.149851 0.070022 0.415448 -0.882377
2004-11-24 09:19:11 51°23.857 3°15.451 17.184773 0.069918 0.414988 -0.882377
2004-11-24 09:20:12 51°24.1 3°15.501 17.203664 0.069918 0.415107 -0.882377
2004-11-24 09:21:12 51°24.332 3°15.519 17.245217 0.069918 0.415286 -0.882377
2004-11-24 09:22:24 51°24.582 3°15.379 17.282872 0.069814 0.414833 -0.882377
2004-11-24 09:23:42 51°24.761 3°15.073 17.333533 0.069814 0.415042 -0.882377
2004-11-24 09:25:00 51°24.722 3°14.676 17.332122 0.069814 0.415139 -0.882377
2004-11-24 09:26:00 51°24.694 3°14.366 17.378151 0.06971 0.414641 -0.916087
2004-11-24 09:27:04 51°24.67 3°14.033 17.409821 0.06971 0.414746 -0.882377
2004-11-24 09:28:18 51°24.643 3°13.648 17.437476 0.06971 0.414865 -0.882377
2004-11-24 09:29:17 51°24.616 3°13.339 17.463756 0.06971 0.414933 -0.882377
2004-11-24 09:30:42 51°24.579 3°12.89 17.497252 0.069606 0.414404 -0.882377
2004-11-24 09:31:41 51°24.554 3°12.58 17.530368 0.069606 0.414479 -0.882377
2004-11-24 09:33:06 51°24.522 3°12.136 17.545036 0.069606 0.414568 -0.882377
2004-11-24 09:34:05 51°24.499 3°11.828 17.584121 0.069606 0.414651 -0.882377
2004-11-24 09:35:09 51°24.476 3°11.493 17.603315 0.069606 0.414725 -0.882377
2004-11-24 09:36:21 51°24.448 3°11.119 17.629307 0.069606 0.4148 -0.882377
2004-11-24 09:37:26 51°24.425 3°10.779 17.649305 0.069502 0.414219 -0.882377
2004-11-24 09:38:32 51°24.397 3°10.431 17.677954 0.069606 0.41495 -0.882377
2004-11-24 09:39:51 51°24.364 3°10.011 17.700974 0.069502 0.414391 -0.882377
2004-11-24 09:40:51 51°24.337 3°9.693 17.72906 0.069502 0.414451 -0.882377
2004-11-24 09:41:53 51°24.307 3°9.362 17.747671 0.069502 0.414503 -0.916087
2004-11-24 09:43:01 51°24.282 3°8.997 17.777503 0.069502 0.414563 -0.882377
2004-11-24 09:44:01 51°24.257 3°8.673 17.801396 0.069502 0.414593 -0.882377
2004-11-24 09:45:16 51°24.23 3°8.269 17.823517 0.069502 0.414683 -0.882377
2004-11-24 09:46:20 51°24.205 3°7.926 17.846535 0.069502 0.414751 -0.916087
2004-11-24 09:47:40 51°24.183 3°7.496 17.876959 0.069502 0.414856 -0.882377
2004-11-24 09:49:20 51°24.159 3°6.959 17.904794 0.069502 0.414938 -0.916087
2004-11-24 09:50:32 51°24.147 3°6.573 17.944224 0.069502 0.415006 -0.882377
2004-11-24 09:51:41 51°24.14 3°6.207 17.961289 0.069398 0.414423 -0.916087
2004-11-24 09:52:52 51°24.16 3°5.837 17.993604 0.069398 0.414461 -0.882377
2004-11-24 09:53:58 51°24.263 3°5.521 18.01138 0.069398 0.414543 -0.882377
2004-11-24 09:55:02 51°24.361 3°5.211 18.032309 0.069398 0.414573 -0.882377
2004-11-24 09:56:08 51°24.468 3°4.892 18.054223 0.069398 0.414618 -0.916087
2004-11-24 09:57:08 51°24.574 3°4.605 18.079465 0.069398 0.414686 -0.882377
2004-11-24 09:58:29 51°24.686 3°4.195 18.107222 0.069398 0.414724 -0.882377
2004-11-24 09:59:44 51°24.797 3°3.821 18.13222 0.069398 0.414776 -0.882377
2004-11-24 10:00:54 51°24.898 3°3.465 18.150142 0.069398 0.414821 -0.882377
2004-11-24 10:01:54 51°24.981 3°3.156 18.171119 0.069398 0.414844 -0.848668
2004-11-24 10:02:54 51°25.045 3°2.835 18.185161 0.069398 0.414874 -0.882377
2004-11-24 10:04:10 51°25.185 3°2.461 18.214406 0.069398 0.414927 -0.882377
2004-11-24 10:05:18 51°25.308 3°2.122 18.237748 0.069398 0.414972 -0.882377
2004-11-24 10:06:27 51°25.427 3°1.776 18.25888 0.069398 0.415002 -0.882377
2004-11-24 10:07:28 51°25.534 3°1.471 18.27704 0.069398 0.415055 -0.916087
2004-11-24 10:08:27 51°25.638 3°1.174 18.295554 0.069398 0.415107 -0.882377
2004-11-24 10:09:32 51°25.753 3°0.848 18.31074 0.069398 0.415138 -0.882377
2004-11-24 10:10:44 51°25.92 3°0.528 18.334679 0.069398 0.415213 -0.916087
2004-11-24 10:11:52 51°26.149 3°0.331 18.358656 0.069398 0.415266 -0.916087
2004-11-24 10:12:54 51°26.393 3°0.266 18.377283 0.069294 0.414674 -0.882377
2004-11-24 10:14:12 51°26.712 3°0.306 18.400034 0.069294 0.414727 -0.882377
2004-11-24 10:15:12 51°26.96 3°0.325 18.420535 0.069294 0.41478 -0.882377
2004-11-24 10:16:26 51°27.266 3°0.342 18.442824 0.069398 0.415485 -0.882377
2004-11-24 10:17:30 51°27.529 3°0.37 18.459547 0.069294 0.414923 -0.882377
2004-11-24 10:18:42 51°27.821 3°0.403 18.480614 0.069294 0.415021 -0.882377
2004-11-24 10:19:48 51°28.089 3°0.435 18.499613 0.069294 0.415104 -0.916087
2004-11-24 10:20:48 51°28.332 3°0.463 18.516099 0.069294 0.415195 -0.882377
2004-11-24 10:21:55 51°28.604 3°0.492 18.535 0.069294 0.415308 -0.882377
2004-11-24 10:22:57 51°28.855 3°0.527 18.551254 0.069294 0.415391 -0.882377
2004-11-24 10:24:04 51°29.128 3°0.561 18.570861 0.069294 0.415459 -0.882377
2004-11-24 10:25:08 51°29.391 3°0.595 18.588539 0.069294 0.415557 -0.916087
2004-11-24 10:26:16 51°29.671 3°0.626 18.605004 0.06919 0.414987 -0.882377
2004-11-24 10:27:32 51°29.987 3°0.662 18.626565 0.06919 0.415063 -0.882377
2004-11-24 10:28:40 51°30.27 3°0.693 18.641188 0.06919 0.415123 -0.882377
2004-11-24 10:29:38 51°30.51 3°0.719 18.6677 0.06919 0.415222 -0.882377
2004-11-24 10:30:48 51°30.798 3°0.751 18.679276 0.06919 0.415313 -0.882377
2004-11-24 10:32:16 51°31.158 3°0.793 18.70278 0.06919 0.415426 -0.916087
2004-11-24 10:33:44 51°31.517 3°0.835 18.728733 0.06919 0.415547 -0.882377
2004-11-24 10:35:20 51°31.912 3°0.879 18.754632 0.06919 0.415692 -0.882377
2004-11-24 10:36:17 51°32.147 3°0.907 18.771193 0.06919 0.415828 -0.916087
2004-11-24 10:37:35 51°32.467 3°0.95 18.789714 0.069086 0.415295 -0.882377
2004-11-24 10:38:54 51°32.795 3°0.989 18.811264 0.069086 0.415439 -0.882377
2004-11-24 10:39:55 51°33.048 3°1.014 18.83031 0.069086 0.41553 -0.882377
2004-11-24 10:41:04 51°33.337 3°1.042 18.845828 0.069086 0.415659 -0.882377
2004-11-24 10:42:06 51°33.594 3°1.066 18.865444 0.069086 0.415773 -0.882377
2004-11-24 10:43:22 51°33.902 3°1.093 18.883941 0.069086 0.415895 -0.882377
2004-11-24 10:44:22 51°34.141 3°1.079 18.899181 0.069086 0.416009 -0.882377
2004-11-24 10:45:27 51°34.347 3°0.867 18.917624 0.069086 0.416032 -0.882377
2004-11-24 10:46:51 51°34.388 3°0.416 18.941362 0.068982 0.415475 -0.916087
2004-11-24 10:47:54 51°34.312 3°0.09 18.950089 0.068982 0.415589 -0.848668
2004-11-24 10:49:00 51°34.218 2°59.758 18.971858 0.068982 0.415711 -0.882377
2004-11-24 10:50:16 51°34.089 2°59.394 19.005856 0.068982 0.415749 -0.882377
2004-11-24 10:51:20 51°33.961 2°59.108 18.998025 0.068982 0.415803 -0.916087
2004-11-24 10:52:45 51°33.794 2°58.724 19.025695 0.068982 0.415932 -0.916087
2004-11-24 10:53:45 51°33.678 2°58.453 19.045529 0.068982 0.416039 -0.882377
2004-11-24 10:54:46 51°33.561 2°58.177 19.047975 0.068982 0.416115 -0.916087
2004-11-24 10:55:56 51°33.427 2°57.859 19.076737 0.068982 0.416154 -0.882377
2004-11-24 10:57:02 51°33.254 2°57.637 19.08567 0.068982 0.416192 -0.916087
2004-11-24 10:58:08 51°33.072 2°57.423 19.097623 0.068982 0.416261 -0.916087
2004-11-24 10:59:16 51°32.878 2°57.213 19.119081 0.068982 0.416337 -0.916087
2004-11-24 11:00:24 51°32.685 2°57.002 19.132006 0.068982 0.416436 -0.882377
2004-11-24 11:01:28 51°32.504 2°56.798 19.148525 0.068982 0.41649 -0.916087
2004-11-24 11:02:56 51°32.255 2°56.523 19.16615 0.068982 0.416567 -0.916087
2004-11-24 11:03:56 51°32.086 2°56.335 19.177779 0.068982 0.416635 -0.882377
2004-11-24 11:04:56 51°31.917 2°56.15 19.196329 0.068982 0.416689 -0.916087
2004-11-24 11:05:56 51°31.748 2°55.964 19.209462 0.068982 0.416773 -0.916087
2004-11-24 11:06:58 51°31.572 2°55.773 19.216737 0.068982 0.416819 -0.882377
2004-11-24 11:07:57 51°31.408 2°55.59 19.228669 0.068878 0.416237 -0.916087
2004-11-24 11:08:58 51°31.237 2°55.402 19.237051 0.068878 0.416268 -0.882377
2004-11-24 11:10:09 51°31.099 2°55.101 19.256693 0.068878 0.416306 -0.882377
2004-11-24 11:11:09 51°31.05 2°54.78 19.269904 0.068878 0.416329 -0.882377
2004-11-24 11:12:08 51°31.006 2°54.459 19.299596 0.068878 0.416375 -0.916087
2004-11-24 11:13:08 51°30.963 2°54.135 19.303806 0.068878 0.416452 -0.916087
2004-11-24 11:14:15 51°30.919 2°53.771 19.320773 0.068878 0.416506 -0.882377
2004-11-24 11:15:19 51°30.878 2°53.42 19.329498 0.068878 0.416567 -0.882377
2004-11-24 11:16:32 51°30.83 2°53.021 19.337957 0.068878 0.416636 -0.882377
2004-11-24 11:17:34 51°30.786 2°52.683 19.348496 0.068878 0.416674 -0.882377
2004-11-24 11:18:52 51°30.73 2°52.257 19.362974 0.068878 0.416759 -0.882377
2004-11-24 11:19:54 51°30.688 2°51.914 19.386211 0.068878 0.416797 -0.882377
2004-11-24 11:20:56 51°30.646 2°51.57 19.391079 0.068878 0.416874 -0.882377
2004-11-24 11:22:32 51°30.537 2°51.078 19.409353 0.068878 0.416982 -0.882377
2004-11-24 11:23:41 51°30.348 2°50.86 19.41935 0.068878 0.417028 -0.882377
2004-11-24 11:24:41 51°30.175 2°50.691 19.447567 0.068878 0.417051 -0.882377
2004-11-24 11:26:01 51°29.936 2°50.482 19.450794 0.068878 0.41712 -0.882377
2004-11-24 11:27:02 51°29.76 2°50.321 19.457294 0.068878 0.417159 -0.848668
2004-11-24 11:28:02 51°29.59 2°50.157 19.472015 0.068774 0.416576 -0.882377
2004-11-24 11:29:02 51°29.421 2°49.993 19.475109 0.068774 0.416629 -0.882377
2004-11-24 11:30:24 51°29.191 2°49.77 19.505291 0.068774 0.416675 -0.882377
2004-11-24 11:31:56 51°28.926 2°49.541 19.515673 0.068774 0.416729 -0.848668
2004-11-24 11:33:04 51°28.73 2°49.371 19.538067 0.068774 0.416806 -0.916087
2004-11-24 11:34:12 51°28.535 2°49.198 19.56765 0.068774 0.41686 -0.916087
2004-11-24 11:35:21 51°28.335 2°49.022 19.554891 0.068774 0.416914 -0.882377
2004-11-24 11:36:28 51°28.141 2°48.846 19.558776 0.068774 0.416968 -0.882377
2004-11-24 11:37:28 51°27.969 2°48.691 19.574183 0.068774 0.417014 -0.848668
2004-11-24 11:39:05 51°27.683 2°48.445 19.597087 0.068774 0.417091 -0.882377
2004-11-24 11:40:15 51°27.474 2°48.268 19.590601 0.068774 0.417145 -0.916087
2004-11-24 11:41:16 51°27.293 2°48.114 19.618794 0.068774 0.417176 -0.882377
2004-11-24 11:42:26 51°27.084 2°47.932 19.61478 0.068774 0.41723 -0.882377
2004-11-24 11:43:48 51°26.835 2°47.727 19.625234 0.068774 0.417284 -0.916087
2004-11-24 11:45:16 51°26.564 2°47.521 19.641244 0.06867 0.416677 -0.882377
2004-11-24 11:46:30 51°26.336 2°47.346 19.644551 0.06867 0.416723 -0.848668
2004-11-24 11:47:38 51°26.126 2°47.179 19.660777 0.06867 0.416769 -0.916087
2004-11-24 11:48:38 51°25.941 2°47.033 19.675192 0.06867 0.416792 -0.916087
2004-11-24 11:49:46 51°25.731 2°46.866 19.667875 0.06867 0.416839 -0.882377
2004-11-24 11:50:48 51°25.54 2°46.715 19.683831 0.06867 0.416846 -0.882377
2004-11-24 11:51:47 51°25.358 2°46.57 19.694408 0.06867 0.41687 -0.882377
2004-11-24 11:53:02 51°25.126 2°46.383 19.72767 0.06867 0.4169 -0.882377
2004-11-24 11:54:02 51°24.932 2°46.268 19.708596 0.06867 0.41697 -0.882377
2004-11-24 11:55:02 51°24.723 2°46.23 19.716922 0.06867 0.416993 -0.882377
2004-11-24 11:56:00 51°24.521 2°46.191 19.725776 0.06867 0.417008 -0.848668
2004-11-24 11:57:25 51°24.225 2°46.13 19.735951 0.06867 0.417078 -0.882377
2004-11-24 11:58:38 51°23.968 2°46.074 19.737404 0.06867 0.417147 -0.882377
2004-11-24 11:59:50 51°23.715 2°46.031 19.757396 0.06867 0.417194 -0.916087
2004-11-24 12:00:49 51°23.506 2°46.019 19.733749 0.06867 0.41724 -0.882377
2004-11-24 12:02:16 51°23.199 2°45.997 19.736787 0.06867 0.41731 -0.882377
2004-11-24 12:03:16 51°22.985 2°45.982 19.750043 0.06867 0.417364 -0.916087
2004-11-24 12:04:20 51°22.757 2°45.963 19.784424 0.06867 0.417403 -0.882377
2004-11-24 12:05:21 51°22.541 2°45.95 19.76805 0.06867 0.417457 -0.916087
2004-11-24 12:06:20 51°22.331 2°45.934 19.785348 0.068567 0.416848 -0.882377
2004-11-24 12:07:19 51°22.121 2°45.913 19.79547 0.068567 0.416902 -0.916087
2004-11-24 12:08:28 51°21.875 2°45.905 19.771043 0.068567 0.416972 -0.882377
2004-11-24 12:10:06 51°21.525 2°45.908 19.81483 0.068567 0.417065 -0.882377
2004-11-24 12:11:16 51°21.277 2°45.91 19.817777 0.068567 0.417119 -0.882377
2004-11-24 12:12:18 51°21.055 2°45.913 19.82068 0.068567 0.417181 -0.848668
2004-11-24 12:13:28 51°20.805 2°45.918 19.80757 0.068567 0.41722 -0.882377
2004-11-24 12:14:38 51°20.555 2°45.92 19.814082 0.068567 0.417274 -0.882377
2004-11-24 12:16:49 51°20.127 2°45.9 19.832909 0.068567 0.417367 -0.882377
2004-11-24 12:18:04 51°20.015 2°45.84 19.8337 0.068567 0.417437 -0.882377
2004-11-24 12:19:16 51°19.957 2°45.808 19.856787 0.068463 0.416827 -0.916087
2004-11-24 12:20:36 51°19.959 2°45.791 19.860348 0.068567 0.41753 -0.916087
2004-11-24 12:21:46 51°19.969 2°45.785 19.840253 0.068463 0.416905 -0.882377
2004-11-24 12:22:58 51°19.974 2°45.79 19.876438 0.068463 0.41692 -0.848668
2004-11-24 12:24:16 51°19.977 2°45.797 19.874856 0.068463 0.416967 -0.916087
2004-11-24 12:25:40 51°19.969 2°45.799 19.890898 0.068463 0.417006 -0.916087
2004-11-24 12:26:42 51°19.959 2°45.795 19.877449 0.068463 0.417052 -0.882377
2004-11-24 12:27:44 51°19.953 2°45.792 19.868218 0.068463 0.417091 -0.882377
2004-11-24 12:28:52 51°19.95 2°45.793 19.878768 0.068463 0.417145 -0.916087
2004-11-24 12:30:00 51°19.95 2°45.792 19.894414 0.068463 0.417161 -0.882377
2004-11-24 12:31:16 51°19.952 2°45.795 19.912824 0.068463 0.417207 -0.882377
2004-11-24 12:32:16 51°19.953 2°45.804 19.895293 0.068463 0.417238 -0.848668
2004-11-24 12:33:34 51°19.954 2°45.823 19.926618 0.068463 0.417277 -0.848668
2004-11-24 12:34:53 51°19.956 2°45.849 19.900785 0.068463 0.417316 -0.882377
2004-11-24 12:35:59 51°19.957 2°45.876 19.924554 0.068463 0.417331 -0.882377
2004-11-24 12:37:06 51°19.959 2°45.907 19.937994 0.068463 0.417378 -0.882377
2004-11-24 12:38:04 51°19.962 2°45.938 19.929737 0.068463 0.417394 -0.882377
2004-11-24 12:39:06 51°19.966 2°45.973 19.926794 0.068463 0.417417 -0.916087
2004-11-24 12:40:32 51°19.975 2°46.015 19.920776 0.068463 0.41744 -0.916087
2004-11-24 12:41:56 51°19.987 2°46.05 19.925871 0.068463 0.417479 -0.882377
2004-11-24 12:42:57 51°19.997 2°46.071 19.949192 0.068463 0.41751 -0.882377
2004-11-24 12:43:54 51°20.006 2°46.089 19.936369 0.068463 0.417541 -0.882377
2004-11-24 12:45:00 51°20.017 2°46.11 19.94625 0.068463 0.417564 -0.882377
2004-11-24 12:46:00 51°20.027 2°46.126 19.945635 0.068463 0.41758 -0.882377
2004-11-24 12:47:00 51°20.039 2°46.141 19.972769 0.068463 0.417611 -0.882377
2004-11-24 12:48:06 51°20.051 2°46.157 19.948621 0.068463 0.417619 -0.882377
2004-11-24 12:49:15 51°20.064 2°46.17 19.994407 0.068463 0.417642 -0.882377
2004-11-24 12:50:14 51°20.034 2°46.121 19.996996 0.068463 0.417642 -0.882377
2004-11-24 12:51:32 51°19.96 2°45.944 20.004193 0.068359 0.417032 -0.882377
2004-11-24 12:52:30 51°19.91 2°45.791 20.027138 0.068359 0.417063 -0.882377
2004-11-24 12:53:45 51°19.894 2°45.718 20.009546 0.068359 0.417109 -0.916087
2004-11-24 12:54:50 51°19.91 2°45.711 20.004983 0.068359 0.417109 -0.916087
2004-11-24 12:56:14 51°19.934 2°45.705 20.014855 0.068359 0.417133 -0.882377
2004-11-24 12:57:20 51°19.945 2°45.698 20.023277 0.068359 0.417148 -0.882377
2004-11-24 12:58:46 51°19.95 2°45.696 20.037182 0.068359 0.417172 -0.882377
2004-11-24 12:59:52 51°19.95 2°45.703 20.039813 0.068359 0.417203 -0.916087
2004-11-24 13:00:58 51°19.949 2°45.714 20.01231 0.068359 0.417226 -0.882377
2004-11-24 13:02:06 51°19.935 2°45.729 20.007922 0.068359 0.417234 -0.882377
2004-11-24 13:03:23 51°19.814 2°45.698 20.048847 0.068359 0.417265 -0.882377
2004-11-24 13:04:43 51°19.648 2°45.471 20.097857 0.068359 0.417304 -0.882377
2004-11-24 13:05:50 51°19.481 2°45.253 20.045865 0.068359 0.417319 -0.882377
2004-11-24 13:06:56 51°19.311 2°45.031 20.076688 0.068359 0.417343 -0.882377
2004-11-24 13:07:56 51°19.157 2°44.826 20.034901 0.068359 0.417358 -0.916087
2004-11-24 13:09:25 51°18.927 2°44.525 20.055819 0.068359 0.417405 -0.882377
2004-11-24 13:10:28 51°18.758 2°44.325 20.081334 0.068359 0.417436 -0.882377
2004-11-24 13:11:32 51°18.602 2°44.144 20.033936 0.068359 0.417491 -0.882377
2004-11-24 13:12:49 51°18.558 2°44.093 20.034331 0.068359 0.417537 -0.882377
2004-11-24 13:13:49 51°18.569 2°44.08 20.061519 0.068359 0.417553 -0.882377
2004-11-24 13:14:55 51°18.587 2°44.07 20.036042 0.068359 0.417553 -0.882377
2004-11-24 13:16:16 51°18.609 2°44.061 20.070814 0.068359 0.417584 -0.916087
2004-11-24 13:17:16 51°18.624 2°44.057 20.059985 0.068359 0.417607 -0.916087
2004-11-24 13:18:32 51°18.643 2°44.054 20.051654 0.068359 0.417654 -0.882377
2004-11-24 13:19:36 51°18.655 2°44.048 20.057749 0.068359 0.41767 -0.882377
2004-11-24 13:20:38 51°18.639 2°44.039 20.036743 0.068359 0.417709 -0.916087
2004-11-24 13:21:38 51°18.519 2°43.967 20.070244 0.068359 0.41774 -0.916087
2004-11-24 13:22:48 51°18.298 2°43.812 20.065421 0.068255 0.417113 -0.882377
2004-11-24 13:23:58 51°18.069 2°43.634 20.102151 0.068359 0.417795 -0.916087
2004-11-24 13:25:14 51°17.822 2°43.44 20.080063 0.068255 0.417167 -0.882377
2004-11-24 13:26:21 51°17.606 2°43.261 20.098426 0.068255 0.417183 -0.916087
2004-11-24 13:27:36 51°17.367 2°43.059 20.13641 0.068255 0.417237 -0.882377
2004-11-24 13:28:36 51°17.243 2°42.957 20.098952 0.068255 0.417261 -0.916087
2004-11-24 13:29:44 51°17.193 2°42.927 20.093869 0.068255 0.417276 -0.882377
2004-11-24 13:30:46 51°17.19 2°42.919 20.062396 0.068255 0.417315 -0.848668
2004-11-24 13:31:51 51°17.187 2°42.91 20.10145 0.068255 0.417362 -0.916087
2004-11-24 13:32:48 51°17.187 2°42.9 20.100442 0.068255 0.417386 -0.848668
2004-11-24 13:33:56 51°17.186 2°42.888 20.073838 0.068255 0.417417 -0.882377
2004-11-24 13:34:56 51°17.189 2°42.878 20.069893 0.068255 0.41744 -0.916087
2004-11-24 13:36:02 51°17.186 2°42.861 20.096104 0.068255 0.417471 -0.882377
2004-11-24 13:37:27 51°16.98 2°42.752 20.16137 0.068255 0.417464 -0.882377
2004-11-24 13:38:24 51°16.776 2°42.729 20.092554 0.068255 0.417495 -0.882377
2004-11-24 13:39:43 51°16.489 2°42.715 20.136716 0.068255 0.41751 -0.916087
2004-11-24 13:40:52 51°16.239 2°42.687 20.075504 0.068255 0.417549 -0.882377
2004-11-24 13:42:07 51°15.99 2°42.655 20.073488 0.068255 0.417596 -0.882377
2004-11-24 13:43:06 51°15.913 2°42.625 20.098032 0.068255 0.41762 -0.882377
2004-11-24 13:44:06 51°15.914 2°42.609 20.093387 0.068255 0.417643 -0.882377
2004-11-24 13:45:04 51°15.921 2°42.593 20.095928 0.068255 0.417643 -0.882377
2004-11-24 13:46:06 51°15.929 2°42.571 20.092598 0.068255 0.417666 -0.882377
2004-11-24 13:47:07 51°15.934 2°42.55 20.09755 0.068255 0.417682 -0.916087
2004-11-24 13:48:21 51°15.935 2°42.529 20.111966 0.068255 0.417698 -0.916087
2004-11-24 13:49:21 51°15.933 2°42.517 20.099127 0.068255 0.417721 -0.882377
2004-11-24 13:50:24 51°15.887 2°42.544 20.142541 0.068255 0.41776 -0.882377
2004-11-24 13:51:30 51°15.797 2°42.814 20.128657 0.068255 0.417745 -0.882377
2004-11-24 13:52:30 51°15.717 2°43.149 20.095797 0.068255 0.417791 -0.882377
2004-11-24 13:53:55 51°15.664 2°43.656 20.149854 0.068255 0.417831 -0.882377
2004-11-24 13:55:00 51°15.626 2°44.048 20.153577 0.068255 0.417917 -0.882377
2004-11-24 13:56:08 51°15.584 2°44.457 20.147008 0.068151 0.417374 -0.882377
2004-11-24 13:57:09 51°15.568 2°44.827 20.113105 0.068151 0.41746 -0.848668
2004-11-24 13:58:12 51°15.563 2°45.212 20.119151 0.068151 0.417546 -0.882377
2004-11-24 13:59:22 51°15.539 2°45.638 20.142059 0.068151 0.417671 -0.882377
2004-11-24 14:00:24 51°15.516 2°46.013 20.142059 0.068151 0.417757 -0.882377
2004-11-24 14:01:30 51°15.489 2°46.411 20.114069 0.068151 0.417867 -0.882377
2004-11-24 14:02:38 51°15.459 2°46.818 20.10662 0.068047 0.41734 -0.882377
2004-11-24 14:03:38 51°15.44 2°47.178 20.145519 0.068047 0.417449 -0.882377
2004-11-24 14:04:37 51°15.422 2°47.533 20.144512 0.068047 0.417551 -0.882377
2004-11-24 14:05:36 51°15.4 2°47.884 20.121166 0.068047 0.417676 -0.916087
2004-11-24 14:06:38 51°15.376 2°48.253 20.123707 0.068047 0.41781 -0.882377
2004-11-24 14:07:37 51°15.362 2°48.608 20.098295 0.067943 0.417266 -0.882377
2004-11-24 14:08:38 51°15.344 2°48.976 20.114682 0.067943 0.417383 -0.882377
2004-11-24 14:09:52 51°15.324 2°49.418 20.139738 0.067943 0.41754 -0.916087
2004-11-24 14:10:50 51°15.308 2°49.767 20.090231 0.067943 0.417666 -0.916087
2004-11-24 14:12:00 51°15.293 2°50.191 20.112185 0.067943 0.417808 -0.882377
2004-11-24 14:13:09 51°15.28 2°50.608 20.128832 0.067839 0.417279 -0.882377
2004-11-24 14:14:16 51°15.272 2°51.013 20.10386 0.067839 0.417412 -0.882377
2004-11-24 14:15:20 51°15.265 2°51.398 20.081641 0.067839 0.417538 -0.882377
2004-11-24 14:16:34 51°15.234 2°51.836 20.156598 0.067839 0.417672 -0.916087
2004-11-24 14:17:42 51°15.168 2°52.226 20.145694 0.067839 0.417814 -0.882377
2004-11-24 14:18:42 51°15.113 2°52.571 20.149767 0.067735 0.417292 -0.916087
2004-11-24 14:19:42 51°15.057 2°52.915 20.136848 0.067735 0.41741 -0.882377
2004-11-24 14:20:42 51°15 2°53.257 20.102458 0.067735 0.417528 -0.882377
2004-11-24 14:21:50 51°14.914 2°53.636 20.13711 0.067735 0.417662 -0.882377
2004-11-24 14:23:02 51°14.806 2°54.026 20.114682 0.067735 0.417836 -0.882377
2004-11-24 14:24:09 51°14.673 2°54.348 20.093474 0.067631 0.417321 -0.916087
2004-11-24 14:25:09 51°14.565 2°54.614 20.136497 0.067631 0.417416 -0.882377
2004-11-24 14:26:08 51°14.452 2°54.864 20.160232 0.067631 0.417526 -0.882377
2004-11-24 14:27:15 51°14.341 2°55.121 20.104298 0.067631 0.417668 -0.882377
2004-11-24 14:28:16 51°14.277 2°55.248 20.105306 0.067631 0.417787 -0.916087
2004-11-24 14:29:20 51°14.218 2°55.331 20.089968 0.067631 0.41789 -0.916087
2004-11-24 14:30:16 51°14.155 2°55.391 20.090275 0.067527 0.417319 -0.916087
2004-11-24 14:31:24 51°14.065 2°55.459 20.094614 0.067527 0.417414 -0.916087
2004-11-24 14:32:24 51°13.977 2°55.526 20.079931 0.067527 0.417477 -0.882377
2004-11-24 14:33:24 51°13.885 2°55.593 20.08186 0.067527 0.417533 -0.916087
2004-11-24 14:34:24 51°13.789 2°55.66 20.070945 0.067527 0.41758 -0.882377
2004-11-24 14:35:25 51°13.717 2°55.765 20.088478 0.067527 0.417636 -0.882377
2004-11-24 14:36:25 51°13.669 2°55.892 20.100135 0.067527 0.417651 -0.882377
2004-11-24 14:37:25 51°13.635 2°55.994 20.057529 0.067527 0.417731 -0.882377
2004-11-24 14:38:25 51°13.621 2°56.05 20.06963 0.067527 0.417794 -0.882377
2004-11-24 14:39:24 51°13.617 2°56.061 20.08072 0.067527 0.417881 -0.882377